EW1786 Weather Reports


time (UTC)temp
C
wind
direction
speed
KPH
gust
KPH
rain 1hr
cm
rain 24hr
cm
rain mn
cm
humidity
%
barometer
mb
20260906090018 27 59 4.8 11.3 0.00 0.00 0.00 75 1019.2
20260906085041 27 25 3.2 8.0 0.00 0.00 0.00 75 1019.2
20260906084018 26 39 3.2 8.0 0.00 0.00 0.00 75 1019.1
20260906083018 26 337 0.0 6.4 0.00 0.00 0.00 74 1019.2
20260906082101 26 32 1.6 6.4 0.00 0.00 0.00 74 1019.2
20260906081044 26 345 1.6 6.4 0.00 0.00 0.00 74 1019.0
20260906080039 26 0.0 3.2 0.00 0.00 0.00 73 1019.0
20260906075040 26 29 3.2 6.4 0.00 0.00 0.00 71 1019.0
20260906074023 25 74 0.0 6.4 0.00 0.00 0.00 71 1018.9
20260906073018 25 0.0 0.0 0.00 0.00 0.00 69 1018.9
20260906072059 25 0.0 0.0 0.00 0.00 0.00 69 1018.8
20260906071018 24 0.0 0.0 0.00 0.00 0.00 68 1018.8
20260906070020 23 0.0 0.0 0.00 0.00 0.00 67 1018.7
20260906065018 23 0.0 0.0 0.00 0.00 0.00 68 1018.6
20260906064020 22 0.0 0.0 0.00 0.00 0.00 70 1018.5
20260906063018 22 0.0 0.0 0.00 0.00 0.00 70 1018.4
20260906062019 21 0.0 0.0 0.00 0.00 0.00 71 1018.4
20260906061039 21 0.0 0.0 0.00 0.00 0.00 73 1018.4
20260906060018 21 0.0 0.0 0.00 0.00 0.00 72 1018.3
20260906055017 20 0.0 0.0 0.00 0.00 0.00 74 1018.2
20260906054040 20 0.0 0.0 0.00 0.00 0.00 75 1018.1
20260906053018 20 0.0 0.0 0.00 0.00 0.00 75 1018.0
20260906052534 -17 0.0 0.0 0.00 0.00 0.00
20260906052017 -17 0.0 0.0 0.00 0.00 0.00
20260906051019 -17 0.0 0.0 0.00 0.00 0.00
20260906050547 -17 0.0 0.0 0.00 0.00 0.00
20260906050059 -17 0.0 0.0 0.00 0.00 0.00
20260906045538 -17 0.0 0.0 0.00 0.00 0.00
20260906044518 -17 0.0 0.0 0.00 0.00 0.00
20260906044034 -17 0.0 0.0 0.00 0.00 0.00
20260906043534 -17 0.0 0.0 0.00 0.00 0.00
20260906043018 -17 0.0 0.0 0.00 0.00 0.00
20260906042018 -17 0.0 0.0 0.00 0.00 0.00
20260906041557 -17 0.0 0.0 0.00 0.00 0.00
20260906041038 -17 0.0 0.0 0.00 0.00 0.00
20260906040517 -17 0.0 0.0 0.00 0.00 0.00
20260906035539 -17 0.0 0.0 0.00 0.00 0.00
20260906035034 -17 0.0 0.0 0.00 0.00 0.00
20260906034533 -17 0.0 0.0 0.00 0.00 0.00
20260906034021 -17 0.0 0.0 0.00 0.00 0.00
20260906033017 -17 0.0 0.0 0.00 0.00 0.00
20260906032528 -17 0.0 0.0 0.00 0.00 0.00 76
20260906032005 -17 0.0 0.0 0.00 0.00 0.00 76
20260906031520 21 0.0 0.0 0.00 0.00 0.00 77 1017.1
20260906030517 21 0.0 0.0 0.00 0.00 0.00 75 1017.2
20260906025522 21 0.0 0.0 0.00 0.00 0.00 72 1017.1
20260906024517 20 0.0 0.0 0.00 0.00 0.00 70 1017.1
20260906023517 21 0.0 0.0 0.00 0.00 0.00 69 1016.9
20260906022517 21 0.0 0.0 0.00 0.00 0.00 67 1016.7
20260906021517 21 241 1.6 3.2 0.00 0.00 0.00 68 1016.6
20260906020524 21 253 1.6 3.2 0.00 0.00 0.00 68 1016.5
20260906015518 21 0.0 0.0 0.00 0.00 0.00 68 1016.4
20260906014517 21 0.0 1.6 0.00 0.00 0.00 70 1016.4
20260906013517 21 259 0.0 3.2 0.00 0.00 0.00 70 1016.4
20260906012517 21 249 0.0 1.6 0.00 0.00 0.00 69 1016.3
20260906011517 22 0.0 0.0 0.00 0.00 0.00 67 1016.3
20260906010517 22 231 0.0 3.2 0.00 0.00 0.00 66 1016.2
20260906005518 23 238 0.0 3.2 0.00 0.00 0.00 64 1016.2
20260906004518 23 230 0.0 3.2 0.00 0.00 0.00 64 1016.2
20260906003517 23 0.0 0.0 0.00 0.00 0.00 63 1016.2
20260906002517 23 0.0 0.0 0.00 0.00 0.00 64 1016.2
20260906001519 23 0.0 0.0 0.00 0.00 0.00 64 1016.2
20260906000540 23 0.0 0.0 0.00 0.00 0.00 63 1016.2
20260905235520 23 0.0 0.0 0.00 0.00 0.00 64 1016.2
20260905234519 23 0.0 0.0 0.00 0.00 0.00 62 1016.0
20260905233539 23 0.0 0.0 0.00 0.00 0.00 63 1015.9
20260905232519 23 0.0 0.0 0.00 0.00 0.00 63 1015.8
20260905231519 23 0.0 0.0 0.00 0.00 0.00 62 1015.8
20260905230519 23 0.0 0.0 0.00 0.00 0.00 63 1015.8
20260905225519 22 136 0.0 1.6 0.00 0.00 0.00 64 1015.7
20260905224519 23 0.0 0.0 0.00 0.00 0.00 64 1015.7
20260905223519 23 0.0 0.0 0.00 0.00 0.00 63 1015.6
20260905222519 23 0.0 0.0 0.00 0.00 0.00 61 1015.6
20260905221520 24 0.0 1.6 0.00 0.00 0.00 59 1015.5
20260905220559 24 259 0.0 8.0 0.00 0.00 0.00 59 1015.4
20260905215519 24 39 1.6 4.8 0.00 0.00 0.00 59 1015.3
20260905214519 25 0.0 0.0 0.00 0.00 0.00 57 1015.2
20260905213519 25 0.0 0.0 0.00 0.00 0.00 57 1015.1
20260905212539 25 233 0.0 3.2 0.00 0.00 0.00 57 1014.9
20260905211520 24 251 0.0 3.2 0.00 0.00 0.00 56 1014.9
20260905210519 24 0.0 0.0 0.00 0.00 0.00 57 1014.8
20260905205519 25 0.0 1.6 0.00 0.00 0.00 56 1014.8
20260905204524 25 252 0.0 1.6 0.00 0.00 0.00 55 1014.7
20260905203600 25 259 0.0 1.6 0.00 0.00 0.00 56 1014.7
20260905202518 25 256 0.0 1.6 0.00 0.00 0.00 56 1014.6
20260905201519 25 240 0.0 3.2 0.00 0.00 0.00 56 1014.6
20260905200519 26 229 1.6 1.6 0.00 0.00 0.00 55 1014.7
20260905195539 26 269 0.0 3.2 0.00 0.00 0.00 54 1014.6
20260905194519 27 0.0 0.0 0.00 0.00 0.00 50 1014.5
20260905193518 27 0.0 0.0 0.00 0.00 0.00 47 1014.4
20260905192518 28 0.0 0.0 0.00 0.00 0.00 45 1014.4
20260905191518 27 0.0 0.0 0.00 0.00 0.00 48 1014.3
20260905190540 28 0.0 0.0 0.00 0.00 0.00 48 1014.2
20260905185518 28 0.0 3.2 0.00 0.00 0.00 49 1014.1
20260905184539 28 219 1.6 3.2 0.00 0.00 0.00 46 1013.9
20260905183602 29 0.0 0.0 0.00 0.00 0.00 50 1013.8
20260905182521 29 0.0 0.0 0.00 0.00 0.00 46 1013.6
20260905181518 30 0.0 0.0 0.00 0.00 0.00 48 1013.5
20260905180519 30 0.0 0.0 0.00 0.00 0.00 47 1013.5
20260905175538 31 0.0 0.0 0.00 0.00 0.00 46 1013.4
20260905174518 31 0.0 0.0 0.00 0.00 0.00 45 1013.3
20260905173519 32 0.0 0.0 0.00 0.00 0.00 44 1013.3
20260905172518 32 0.0 0.0 0.00 0.00 0.00 43
20260905171540 33 0.0 0.0 0.00 0.00 0.00 41
20260905170518 34 213 0.0 1.6 0.00 0.00 0.00 38
20260905165518 35 266 0.0 3.2 0.00 0.00 0.00 33
20260905164518 35 307 0.0 4.8 0.00 0.00 0.00 31
20260905163518 35 347 1.6 4.8 0.00 0.00 0.00 31
20260905162521 35 46 0.0 3.2 0.00 0.00 0.00 31
20260905161518 35 358 1.6 6.4 0.00 0.00 0.00 31
20260905160519 35 359 1.6 6.4 0.00 0.00 0.00 32
20260905155518 35 78 1.6 6.4 0.00 0.00 0.00 31
20260905154519 35 341 1.6 8.0 0.00 0.00 0.00 31 1012.6
20260905153519 35 90 4.8 9.7 0.00 0.00 0.00 30 1012.5
20260905152519 35 57 3.2 9.7 0.00 0.00 0.00 30 1012.5
20260905151518 35 87 6.4 11.3 0.00 0.00 0.00 30 1012.6
20260905150518 35 44 3.2 9.7 0.00 0.00 0.00 31 1012.6
20260905145538 35 349 1.6 12.9 0.00 0.00 0.00 30 1012.6
20260905144541 35 355 1.6 6.4 0.00 0.00 0.00 30 1012.7
20260905143520 35 8 4.8 9.7 0.00 0.00 0.00 30 1012.8
20260905142519 35 46 3.2 8.0 0.00 0.00 0.00 28 1012.9
20260905141518 35 0.0 4.8 0.00 0.00 0.00 29 1012.9
20260905140518 35 212 1.6 4.8 0.00 0.00 0.00 29 1012.9
20260905135519 35 230 1.6 4.8 0.00 0.00 0.00 29 1013.1
20260905134518 34 8 3.2 8.0 0.00 0.00 0.00 29 1013.2
20260905133521 34 351 3.2 8.0 0.00 0.00 0.00 29 1013.3
20260905132519 34 1 4.8 9.7 0.00 0.00 0.00 30 1013.4
20260905131518 34 337 1.6 8.0 0.00 0.00 0.00 30 1013.5
20260905130518 33 320 1.6 8.0 0.00 0.00 0.00 31 1013.6
20260905125518 33 342 3.2 9.7 0.00 0.00 0.00 30 1013.7
20260905124544 33 354 3.2 11.3 0.00 0.00 0.00 30 1013.8
20260905123518 33 343 3.2 8.0 0.00 0.00 0.00 31 1013.9
20260905122518 33 356 3.2 11.3 0.00 0.00 0.00 30 1014.0
20260905121518 33 350 4.8 11.3 0.00 0.00 0.00 30 1014.1
20260905120518 33 348 3.2 9.7 0.00 0.00 0.00 30 1014.1
20260905115539 33 0 4.8 14.5 0.00 0.00 0.00 30 1014.2
20260905114520 33 2 4.8 11.3 0.00 0.00 0.00 30 1014.2
20260905113520 33 20 4.8 11.3 0.00 0.00 0.00 30 1014.2
20260905112518 32 12 3.2 6.4 0.00 0.00 0.00 31 1014.2
20260905111518 32 358 4.8 11.3 0.00 0.00 0.00 31 1014.3
20260905110705 32 353 4.8 11.3 0.00 0.00 0.00 31 1014.3
20260905105519 32 347 4.8 11.3 0.00 0.00 0.00 32 1014.3
20260905104518 32 14 4.8 12.9 0.00 0.00 0.00 32 1014.4
20260905103559 32 0.0 6.4 0.00 0.00 0.00 32 1014.4
20260905102538 32 216 0.0 3.2 0.00 0.00 0.00 31 1014.5
20260905101518 31 182 1.6 4.8 0.00 0.00 0.00 34 1014.5
20260905100518 31 22 1.6 8.0 0.00 0.00 0.00 34 1014.6
20260905095518 31 313 1.6 12.9 0.00 0.00 0.00 34 1014.7
20260905094517 31 345 3.2 11.3 0.00 0.00 0.00 35 1014.8
20260905093538 31 314 3.2 11.3 0.00 0.00 0.00 35 1014.9
20260905092518 30 340 3.2 8.0 0.00 0.00 0.00 35 1014.9
20260905091518 30 0.0 8.0 0.00 0.00 0.00 35 1014.9